カタログに戻る

ARIANE 44LP+ R/B

運用中GTO
NORAD 23127·ROCKET BODY·🇫🇷 France

打ち上げ Jun 17, 1994 から Guiana Space Centre

Loading…

TLE

経年Source: Space-Track

元期: Sep 14, 2026, 11:44 UTC

1 23127U 94034D   26257.48927647  .00000062  00000-0  42597-3 0  9992
2 23127   7.3348 276.7936 7225817 196.5699 113.1154  2.26782655263650

AllMySatでARIANE 44LP+ R/Bをリアルタイム追跡

Download on the App Store